Location: Breitenfeld
(46.8500°N, 15.6333°E)
Time: 20:04:15
(UTC+00:00)

N. Korean satellite - Visible Passes

Search period start: 27 November 2022 00:00
Search period end: 07 December 2022 00:00
Orbit: 422 x 454 km, 97.3° (Epoch: 26 November)

Date Brightness Start Highest point End Pass type
(mag) Time Alt. Az. Time Alt. Az. Time Alt. Az.
27 Nov 9.5 03:23:58 10° NE 03:26:08 16° E 03:28:17 10° SE visible
27 Nov 7.0 04:55:38 10° N 04:58:47 35° WNW 05:01:55 10° SW visible
28 Nov 6.6 04:16:49 10° NNE 04:20:15 73° ESE 04:23:39 10° S visible
28 Nov 9.6 16:22:36 10° SW 16:24:45 16° W 16:26:56 10° NW visible
29 Nov 8.9 03:38:39 10° NE 03:41:28 23° E 03:44:14 10° SSE visible
29 Nov 7.5 05:11:07 10° NNW 05:13:55 24° WNW 05:16:41 10° WSW visible
29 Nov 7.7 15:42:37 10° S 15:45:51 46° W 15:49:10 10° NNW visible
30 Nov 6.3 04:31:57 10° N 04:35:23 71° WNW 04:38:45 10° SSW visible
30 Nov 10.1 16:39:10 10° WSW 16:40:00 11° W 16:40:50 10° WNW visible
01 Dec 8.1 03:53:26 10° NNE 03:56:36 35° E 03:59:44 10° SSE visible
01 Dec 8.0 05:26:38 10° NNW 05:28:51 16° WNW 05:31:04 10° WSW visible
01 Dec 8.6 15:57:57 10° SSW 16:00:57 30° W 16:04:00 10° NNW visible
02 Dec 9.8 03:16:04 10° ENE 03:17:34 12° E 03:19:04 10° ESE visible
02 Dec 6.7 04:47:04 10° N 04:50:20 44° WNW 04:53:35 10° SW visible
03 Dec 7.1 04:08:12 10° NNE 04:11:35 54° E 04:14:53 10° S visible
03 Dec 8.4 05:42:25 10° NW 05:43:38 12° WNW 05:44:51 10° W visible
03 Dec 9.4 16:13:21 10° SW 16:15:56 20° W 16:18:33 10° NW visible
04 Dec 9.3 03:30:07 10° NE 03:32:33 18° E 03:34:58 10° SE visible
04 Dec 7.2 05:02:06 10° N 05:05:08 29° WNW 05:08:06 10° SW visible
05 Dec 6.3 04:22:56 10° NNE 04:26:23 87° ESE 04:29:45 10° SSW visible
05 Dec 9.7 16:28:57 10° SW 16:30:48 14° W 16:32:40 10° WNW visible
06 Dec 8.6 03:44:26 10° NE 03:47:23 26° E 03:50:16 10° SSE visible
06 Dec 7.7 05:17:09 10° NNW 05:19:44 20° WNW 05:22:18 10° WSW visible
06 Dec 8.0 15:48:26 10° S 15:51:38 40° W 15:54:53 10° NNW visible
